Overview Statistics Trail Chart Weather Telemetry Raw packets
 

This is the latest recevied weather packets stored in our database for station/object SV9TNF-55. If no packets are shown the sender has not sent any weather packets the latest 10 day(s).

<< 44 45 46 47 48 49 50 >>
Time Temp. Humidity Pressure Rain* Wind** Luminosity Snow
1787981197 18.89° C 68% 1014.1 hPa 0 mm 2.24 m/s, 270° - -
1787980597 18.89° C 69% 1014.1 hPa 0 mm 2.24 m/s, 292° - -
1787979997 18.33° C 70% 1013.9 hPa 0 mm 1.34 m/s, 270° - -
1787979397 18.33° C 69% 1014 hPa 0 mm 2.68 m/s, 292° - -
1787978797 18.33° C 72% 1014.1 hPa 0 mm 1.79 m/s, 292° - -
1787978197 18.33° C 73% 1013.6 hPa 0 mm 2.24 m/s, 292° - -
1787977596 18.89° C 74% 1013.5 hPa 0 mm 1.34 m/s, 315° - -
1787976996 18.89° C 71% 1013.4 hPa 0 mm 0.89 m/s, 270° - -
1787976396 18.89° C 70% 1013.4 hPa 0 mm 0.89 m/s, 292° - -
1787975796 18.33° C 71% 1013.5 hPa 0 mm 0.45 m/s, 292° - -
1787975197 18.89° C 69% 1013.4 hPa 0 mm 0.45 m/s, 315° - -
1787974596 19.44° C 68% 1013.3 hPa 0 mm 0.89 m/s, 292° - -
1787973996 19.44° C 68% 1013.3 hPa 0 mm 1.34 m/s, 270° - -
1787973396 20° C 66% 1013.3 hPa 0 mm 1.79 m/s, 270° - -
1787972795 20° C 66% 1013.3 hPa 0 mm 1.79 m/s, 315° - -
1787972196 20° C 66% 1013.2 hPa 0 mm 1.34 m/s, 292° - -
1787971596 20° C 66% 1013.3 hPa 0 mm 0.89 m/s, 270° - -
1787970995 20° C 67% 1013.3 hPa 0 mm 0.89 m/s, 270° - -
1787970396 20° C 66% 1013.3 hPa 0 mm 1.79 m/s, 292° - -
1787969795 20° C 65% 1013.3 hPa 0 mm 1.79 m/s, 270° - -
1787969195 20° C 64% 1013.4 hPa 0 mm 1.79 m/s, 292° - -
1787968595 19.44° C 64% 1013.5 hPa 0 mm 0.89 m/s, 270° - -
1787967996 18.89° C 65% 1013.5 hPa 0 mm 0 m/s - -
1787967395 19.44° C 64% 1013.8 hPa 0 mm 0.45 m/s, 270° - -
1787966795 20° C 64% 1013.8 hPa 0 mm 0.89 m/s, 315° - -

* Rain latest hour (hover to see other rain measurements)
** Current wind speed in m/s (hover to see current wind gust speed)